Time,TemperatureF,DewpointF,PressureIn,WindDirection,WindDirectionDegrees,WindSpeedMPH,WindSpeedGustMPH,Humidity,HourlyPrecipIn,Conditions,Clouds,dailyrainin,SoftwareType,DateUTC
2013-04-21 00:01:00,39.0,20.0,-100.00,NW,310,16.0,21.0,46,-99.99,,,-99.99,,2013-04-21 06:01:00,
2013-04-21 00:11:00,39.0,20.0,-100.00,NW,310,16.0,22.0,46,-99.99,,,-99.99,,2013-04-21 06:11:00,
2013-04-21 00:21:00,39.0,21.0,-100.00,NW,315,19.0,23.0,47,-99.99,,,-99.99,,2013-04-21 06:21:00,
2013-04-21 00:32:00,39.0,21.0,-100.00,NW,305,14.0,24.0,48,-99.99,,,-99.99,,2013-04-21 06:32:00,
2013-04-21 00:42:00,40.0,21.0,-100.00,NW,310,20.0,27.0,47,-99.99,,,-99.99,,2013-04-21 06:42:00,
2013-04-21 00:51:00,39.0,22.0,-100.00,NW,310,17.0,24.0,48,-99.99,,,-99.99,,2013-04-21 06:51:00,
2013-04-21 01:01:00,38.0,21.0,-100.00,NW,315,14.0,21.0,49,-99.99,,,-99.99,,2013-04-21 07:01:00,
2013-04-21 01:11:00,38.0,22.0,-100.00,NW,310,15.0,18.0,52,-99.99,,,-99.99,,2013-04-21 07:11:00,
2013-04-21 01:21:00,37.0,23.0,-100.00,NW,310,16.0,19.0,55,-99.99,,,-99.99,,2013-04-21 07:21:00,
2013-04-21 01:31:00,37.0,24.0,-100.00,NW,305,10.0,17.0,59,-99.99,,,-99.99,,2013-04-21 07:31:00,
2013-04-21 01:51:00,37.0,25.0,-100.00,WNW,300,10.0,14.0,61,-99.99,,,-99.99,,2013-04-21 07:51:00,
2013-04-21 02:01:00,38.0,25.0,-100.00,NW,320,16.0,18.0,60,-99.99,,,-99.99,,2013-04-21 08:01:00,
2013-04-21 02:11:00,38.0,25.0,-100.00,NW,320,3.0,16.0,59,-99.99,,,-99.99,,2013-04-21 08:11:00,
2013-04-21 02:21:00,36.0,25.0,-100.00,SE,145,11.0,13.0,64,-99.99,,,-99.99,,2013-04-21 08:21:00,
2013-04-21 02:32:00,37.0,26.0,-100.00,ESE,120,6.0,10.0,65,-99.99,,,-99.99,,2013-04-21 08:32:00,
2013-04-21 02:41:00,36.0,27.0,-100.00,SE,135,6.0,10.0,68,-99.99,,,-99.99,,2013-04-21 08:41:00,
2013-04-21 02:52:00,37.0,26.0,-100.00,North,5,6.0,9.0,64,-99.99,,,-99.99,,2013-04-21 08:52:00,
2013-04-21 03:01:00,36.0,26.0,-100.00,ENE,60,4.0,6.0,65,-99.99,,,-99.99,,2013-04-21 09:01:00,
2013-04-21 03:11:00,35.0,27.0,-100.00,East,95,8.0,9.0,73,-99.99,,,-99.99,,2013-04-21 09:11:00,
2013-04-21 03:21:00,35.0,28.0,-100.00,SE,125,4.0,10.0,76,-99.99,,,-99.99,,2013-04-21 09:21:00,
2013-04-21 03:32:00,35.0,29.0,-100.00,SE,140,2.0,3.0,79,-99.99,,,-99.99,,2013-04-21 09:32:00,
2013-04-21 03:42:00,35.0,29.0,-100.00,ESE,110,4.0,6.0,80,-99.99,,,-99.99,,2013-04-21 09:42:00,
2013-04-21 03:52:00,34.0,30.0,-100.00,ENE,70,2.0,6.0,84,-99.99,,,-99.99,,2013-04-21 09:52:00,
2013-04-21 04:02:00,33.0,30.0,-100.00,ESE,115,4.0,7.0,87,-99.99,,,-99.99,,2013-04-21 10:02:00,
2013-04-21 04:12:00,32.0,31.0,-100.00,SE,135,10.0,12.0,94,-99.99,,,-99.99,,2013-04-21 10:12:00,
2013-04-21 04:22:00,32.0,31.0,-100.00,SE,140,8.0,11.0,97,-99.99,,,-99.99,,2013-04-21 10:22:00,
2013-04-21 04:32:00,32.0,32.0,-100.00,SSE,155,8.0,11.0,98,-99.99,,,-99.99,,2013-04-21 10:32:00,
2013-04-21 04:42:00,31.0,31.0,-100.00,South,190,7.0,9.0,99,-99.99,,,-99.99,,2013-04-21 10:42:00,
2013-04-21 04:52:00,30.0,30.0,-100.00,SSW,200,8.0,9.0,99,-99.99,,,-99.99,,2013-04-21 10:52:00,
2013-04-21 05:02:00,31.0,31.0,-100.00,South,185,10.0,11.0,99,-99.99,,,-99.99,,2013-04-21 11:02:00,
2013-04-21 05:11:00,31.0,31.0,-100.00,South,190,9.0,10.0,99,-99.99,,,-99.99,,2013-04-21 11:11:00,
2013-04-21 05:21:00,31.0,31.0,-100.00,SSW,195,10.0,11.0,99,-99.99,,,-99.99,,2013-04-21 11:21:00,
2013-04-21 05:33:00,32.0,32.0,-100.00,SSW,195,11.0,13.0,99,-99.99,,,-99.99,,2013-04-21 11:33:00,
2013-04-21 05:42:00,31.0,31.0,-100.00,South,185,12.0,12.0,99,-99.99,,,-99.99,,2013-04-21 11:42:00,
2013-04-21 05:51:00,32.0,32.0,-100.00,South,180,12.0,12.0,99,-99.99,,,-99.99,,2013-04-21 11:51:00,
2013-04-21 06:02:00,32.0,32.0,-100.00,South,180,11.0,12.0,99,-99.99,,,-99.99,,2013-04-21 12:02:00,
2013-04-21 06:12:00,31.0,31.0,-100.00,SSW,195,9.0,11.0,99,-99.99,,,-99.99,,2013-04-21 12:12:00,
2013-04-21 06:22:00,31.0,31.0,-100.00,South,180,12.0,12.0,99,-99.99,,,-99.99,,2013-04-21 12:22:00,
2013-04-21 06:31:00,30.0,30.0,-100.00,South,185,12.0,12.0,99,-99.99,,,-99.99,,2013-04-21 12:31:00,
2013-04-21 06:42:00,31.0,31.0,-100.00,South,180,15.0,15.0,99,-99.99,,,-99.99,,2013-04-21 12:42:00,
2013-04-21 06:51:00,31.0,31.0,-100.00,SSW,195,11.0,16.0,99,-99.99,,,-99.99,,2013-04-21 12:51:00,
2013-04-21 07:01:00,31.0,31.0,-100.00,South,185,12.0,12.0,99,-99.99,,,-99.99,,2013-04-21 13:01:00,
2013-04-21 07:11:00,31.0,31.0,-100.00,South,185,10.0,12.0,99,-99.99,,,-99.99,,2013-04-21 13:11:00,
2013-04-21 07:21:00,31.0,31.0,-100.00,South,185,11.0,11.0,99,-99.99,,,-99.99,,2013-04-21 13:21:00,
2013-04-21 07:32:00,32.0,32.0,-100.00,South,185,10.0,11.0,99,-99.99,,,-99.99,,2013-04-21 13:32:00,
2013-04-21 07:42:00,32.0,32.0,-100.00,South,185,11.0,12.0,99,-99.99,,,-99.99,,2013-04-21 13:42:00,
2013-04-21 07:52:00,33.0,33.0,-100.00,South,185,10.0,12.0,99,-99.99,,,-99.99,,2013-04-21 13:52:00,
2013-04-21 08:01:00,34.0,33.0,-100.00,South,180,14.0,14.0,98,-99.99,,,-99.99,,2013-04-21 14:01:00,
2013-04-21 08:11:00,35.0,33.0,-100.00,South,185,14.0,15.0,95,-99.99,,,-99.99,,2013-04-21 14:11:00,
2013-04-21 08:21:00,36.0,33.0,-100.00,South,190,13.0,16.0,91,-99.99,,,-99.99,,2013-04-21 14:21:00,
2013-04-21 08:31:00,36.0,33.0,-100.00,South,190,15.0,17.0,87,-99.99,,,-99.99,,2013-04-21 14:31:00,
2013-04-21 08:42:00,36.0,32.0,-100.00,South,180,16.0,17.0,85,-99.99,,,-99.99,,2013-04-21 14:42:00,
2013-04-21 08:52:00,37.0,32.0,-100.00,South,180,13.0,17.0,81,-99.99,,,-99.99,,2013-04-21 14:52:00,
2013-04-21 09:01:00,38.0,31.0,-100.00,SSE,160,11.0,15.0,77,-99.99,,,-99.99,,2013-04-21 15:01:00,
2013-04-21 09:11:00,38.0,31.0,-100.00,SSE,150,13.0,16.0,73,-99.99,,,-99.99,,2013-04-21 15:11:00,
2013-04-21 09:22:00,39.0,30.0,-100.00,SSE,165,12.0,16.0,69,-99.99,,,-99.99,,2013-04-21 15:22:00,
2013-04-21 09:33:00,40.0,30.0,-100.00,SSE,165,12.0,15.0,67,-99.99,,,-99.99,,2013-04-21 15:33:00,
2013-04-21 09:42:00,40.0,29.0,-100.00,SSE,160,12.0,15.0,64,-99.99,,,-99.99,,2013-04-21 15:42:00,
2013-04-21 09:53:00,41.0,28.0,-100.00,SSE,150,11.0,15.0,59,-99.99,,,-99.99,,2013-04-21 15:53:00,
2013-04-21 10:03:00,41.0,26.0,-100.00,SSE,150,9.0,14.0,55,-99.99,,,-99.99,,2013-04-21 16:03:00,
2013-04-21 10:12:00,42.0,26.0,-100.00,SE,140,9.0,12.0,51,-99.99,,,-99.99,,2013-04-21 16:12:00,
2013-04-21 10:22:00,42.0,26.0,-100.00,SSE,155,9.0,12.0,52,-99.99,,,-99.99,,2013-04-21 16:22:00,
2013-04-21 10:32:00,42.0,25.0,-100.00,SE,145,6.0,12.0,50,-99.99,,,-99.99,,2013-04-21 16:32:00,
2013-04-21 10:42:00,44.0,26.0,-100.00,SE,130,9.0,12.0,47,-99.99,,,-99.99,,2013-04-21 16:42:00,
2013-04-21 10:52:00,45.0,24.0,-100.00,ESE,105,9.0,12.0,43,-99.99,,,-99.99,,2013-04-21 16:52:00,
2013-04-21 11:01:00,45.0,24.0,-100.00,ESE,120,6.0,12.0,43,-99.99,,,-99.99,,2013-04-21 17:01:00,
2013-04-21 11:11:00,45.0,24.0,-100.00,East,100,9.0,12.0,42,-99.99,,,-99.99,,2013-04-21 17:11:00,
2013-04-21 11:22:00,44.0,23.0,-100.00,SE,125,7.0,17.0,43,-99.99,,,-99.99,,2013-04-21 17:22:00,
2013-04-21 11:32:00,43.0,22.0,-100.00,SSE,150,9.0,15.0,42,-99.99,,,-99.99,,2013-04-21 17:32:00,
2013-04-21 11:41:00,44.0,22.0,-100.00,SE,140,9.0,14.0,41,-99.99,,,-99.99,,2013-04-21 17:41:00,
2013-04-21 11:52:00,45.0,22.0,-100.00,ESE,110,6.0,12.0,39,-99.99,,,-99.99,,2013-04-21 17:52:00,
2013-04-21 12:02:00,45.0,21.0,-100.00,ESE,110,3.0,11.0,38,-99.99,,,-99.99,,2013-04-21 18:02:00,
2013-04-21 12:11:00,41.0,24.0,-100.00,NNE,30,17.0,24.0,50,-99.99,,,-99.99,,2013-04-21 18:11:00,
2013-04-21 12:21:00,41.0,28.0,-100.00,NNE,20,21.0,25.0,60,-99.99,,,-99.99,,2013-04-21 18:21:00,
2013-04-21 12:32:00,39.0,31.0,-100.00,NNE,20,21.0,27.0,70,-99.99,,,-99.99,,2013-04-21 18:32:00,
2013-04-21 12:42:00,39.0,32.0,-100.00,NE,35,19.0,24.0,76,-99.99,,,-99.99,,2013-04-21 18:42:00,
2013-04-21 12:52:00,39.0,34.0,-100.00,NNE,30,21.0,25.0,82,-99.99,,,-99.99,,2013-04-21 18:52:00,
2013-04-21 13:02:00,40.0,34.0,-100.00,NNE,25,19.0,23.0,77,-99.99,,,-99.99,,2013-04-21 19:02:00,
2013-04-21 13:11:00,41.0,33.0,-100.00,NNE,30,17.0,22.0,74,-99.99,,,-99.99,,2013-04-21 19:11:00,
2013-04-21 13:21:00,42.0,33.0,-100.00,NNE,25,16.0,20.0,71,-99.99,,,-99.99,,2013-04-21 19:21:00,
2013-04-21 13:31:00,42.0,33.0,-100.00,NNE,25,12.0,20.0,70,-99.99,,,-99.99,,2013-04-21 19:31:00,
2013-04-21 13:42:00,42.0,31.0,-100.00,NNE,30,11.0,16.0,64,-99.99,,,-99.99,,2013-04-21 19:42:00,
2013-04-21 13:52:00,42.0,32.0,-100.00,North,10,12.0,15.0,66,-99.99,,,-99.99,,2013-04-21 19:52:00,
2013-04-21 14:01:00,42.0,31.0,-100.00,NNE,25,12.0,18.0,65,-99.99,,,-99.99,,2013-04-21 20:01:00,
2013-04-21 14:11:00,43.0,32.0,-100.00,NNE,25,10.0,13.0,63,-99.99,,,-99.99,,2013-04-21 20:11:00,
2013-04-21 14:21:00,42.0,31.0,-100.00,North,10,12.0,16.0,63,-99.99,,,-99.99,,2013-04-21 20:21:00,
2013-04-21 14:31:00,43.0,31.0,-100.00,NE,45,11.0,16.0,63,-99.99,,,-99.99,,2013-04-21 20:31:00,
2013-04-21 14:41:00,42.0,31.0,-100.00,NNE,15,10.0,16.0,64,-99.99,,,-99.99,,2013-04-21 20:41:00,
2013-04-21 14:51:00,43.0,31.0,-100.00,NNE,20,12.0,16.0,62,-99.99,,,-99.99,,2013-04-21 20:51:00,
2013-04-21 15:01:00,42.0,30.0,-100.00,NNE,20,12.0,17.0,62,-99.99,,,-99.99,,2013-04-21 21:01:00,
2013-04-21 15:12:00,42.0,30.0,-100.00,North,10,12.0,14.0,60,-99.99,,,-99.99,,2013-04-21 21:12:00,
2013-04-21 15:21:00,43.0,30.0,-100.00,North,5,12.0,17.0,59,-99.99,,,-99.99,,2013-04-21 21:21:00,
2013-04-21 15:32:00,44.0,30.0,-100.00,NNE,15,15.0,19.0,57,-99.99,,,-99.99,,2013-04-21 21:32:00,
2013-04-21 15:43:00,45.0,31.0,-100.00,NE,40,11.0,19.0,56,-99.99,,,-99.99,,2013-04-21 21:43:00,
2013-04-21 15:53:00,43.0,29.0,-100.00,North,0,17.0,22.0,56,-99.99,,,-99.99,,2013-04-21 21:53:00,
2013-04-21 16:02:00,42.0,28.0,-100.00,North,5,17.0,24.0,57,-99.99,,,-99.99,,2013-04-21 22:02:00,
2013-04-21 16:12:00,42.0,28.0,-100.00,North,5,17.0,21.0,56,-99.99,,,-99.99,,2013-04-21 22:12:00,
2013-04-21 16:22:00,42.0,27.0,-100.00,NNE,15,16.0,21.0,55,-99.99,,,-99.99,,2013-04-21 22:22:00,
2013-04-21 16:32:00,42.0,27.0,-100.00,North,10,16.0,22.0,55,-99.99,,,-99.99,,2013-04-21 22:32:00,
2013-04-21 16:42:00,41.0,26.0,-100.00,North,5,19.0,24.0,54,-99.99,,,-99.99,,2013-04-21 22:42:00,
2013-04-21 16:52:00,39.0,25.0,-100.00,North,0,23.0,26.0,56,-99.99,,,-99.99,,2013-04-21 22:52:00,
2013-04-21 17:02:00,38.0,25.0,-100.00,North,0,17.0,24.0,58,-99.99,,,-99.99,,2013-04-21 23:02:00,
2013-04-21 17:11:00,37.0,24.0,-100.00,North,350,21.0,26.0,60,-99.99,,,-99.99,,2013-04-21 23:11:00,
2013-04-21 17:22:00,35.0,24.0,-100.00,North,350,24.0,28.0,62,-99.99,,,-99.99,,2013-04-21 23:22:00,
2013-04-21 17:32:00,33.0,23.0,-100.00,North,0,21.0,27.0,65,-99.99,,,-99.99,,2013-04-21 23:32:00,
2013-04-21 17:42:00,32.0,24.0,-100.00,North,0,23.0,26.0,71,-99.99,,,-99.99,,2013-04-21 23:42:00,
2013-04-21 17:52:00,30.0,23.0,-100.00,North,0,21.0,27.0,75,-99.99,,,-99.99,,2013-04-21 23:52:00,
2013-04-21 18:01:00,29.0,23.0,-100.00,North,0,22.0,27.0,79,-99.99,,,-99.99,,2013-04-22 00:01:00,
2013-04-21 18:11:00,29.0,24.0,-100.00,North,355,20.0,27.0,81,-99.99,,,-99.99,,2013-04-22 00:11:00,
2013-04-21 18:21:00,28.0,24.0,-100.00,North,355,19.0,22.0,83,-99.99,,,-99.99,,2013-04-22 00:21:00,
2013-04-21 18:31:00,28.0,24.0,-100.00,North,0,17.0,21.0,85,-99.99,,,-99.99,,2013-04-22 00:31:00,
2013-04-21 18:42:00,28.0,25.0,-100.00,North,0,15.0,21.0,87,-99.99,,,-99.99,,2013-04-22 00:42:00,
2013-04-21 18:51:00,28.0,25.0,-100.00,North,0,21.0,26.0,90,-99.99,,,-99.99,,2013-04-22 00:51:00,
2013-04-21 19:01:00,27.0,26.0,-100.00,North,0,20.0,26.0,95,-99.99,,,-99.99,,2013-04-22 01:01:00,
2013-04-21 19:11:00,27.0,26.0,-100.00,North,0,17.0,25.0,97,-99.99,,,-99.99,,2013-04-22 01:11:00,
2013-04-21 19:21:00,26.0,26.0,-100.00,North,355,22.0,26.0,98,-99.99,,,-99.99,,2013-04-22 01:21:00,
2013-04-21 19:32:00,26.0,26.0,-100.00,North,0,18.0,24.0,98,-99.99,,,-99.99,,2013-04-22 01:32:00,
2013-04-21 19:41:00,25.0,25.0,-100.00,North,0,27.0,30.0,99,-99.99,,,-99.99,,2013-04-22 01:41:00,
2013-04-21 19:51:00,25.0,25.0,-100.00,North,0,24.0,35.0,99,-99.99,,,-99.99,,2013-04-22 01:51:00,
2013-04-21 20:01:00,24.0,24.0,-100.00,North,350,26.0,35.0,99,-99.99,,,-99.99,,2013-04-22 02:01:00,
2013-04-21 20:11:00,24.0,24.0,-100.00,NNW,345,30.0,40.0,99,-99.99,,,-99.99,,2013-04-22 02:11:00,
2013-04-21 20:21:00,23.0,23.0,-100.00,North,355,32.0,42.0,99,-99.99,,,-99.99,,2013-04-22 02:21:00,
2013-04-21 20:31:00,23.0,23.0,-100.00,North,350,26.0,34.0,99,-99.99,,,-99.99,,2013-04-22 02:31:00,
2013-04-21 20:51:00,22.0,22.0,-100.00,North,0,31.0,38.0,99,-99.99,,,-99.99,,2013-04-22 02:51:00,
2013-04-21 21:02:00,22.0,22.0,-100.00,North,355,35.0,47.0,99,-99.99,,,-99.99,,2013-04-22 03:02:00,
2013-04-21 21:11:00,22.0,22.0,-100.00,North,0,30.0,40.0,99,-99.99,,,-99.99,,2013-04-22 03:11:00,
2013-04-21 21:22:00,22.0,22.0,-100.00,North,355,32.0,45.0,99,-99.99,,,-99.99,,2013-04-22 03:22:00,
2013-04-21 21:33:00,22.0,22.0,-100.00,North,355,32.0,38.0,99,-99.99,,,-99.99,,2013-04-22 03:33:00,
2013-04-21 21:42:00,22.0,22.0,-100.00,NNW,330,30.0,42.0,99,-99.99,,,-99.99,,2013-04-22 03:42:00,
2013-04-21 21:52:00,21.0,21.0,-100.00,North,355,25.0,38.0,99,-99.99,,,-99.99,,2013-04-22 03:52:00,
2013-04-21 22:02:00,21.0,21.0,-100.00,North,0,26.0,36.0,99,-99.99,,,-99.99,,2013-04-22 04:02:00,
2013-04-21 22:12:00,21.0,21.0,-100.00,North,0,25.0,35.0,99,-99.99,,,-99.99,,2013-04-22 04:12:00,
2013-04-21 22:23:00,21.0,21.0,-100.00,North,350,32.0,40.0,99,-99.99,,,-99.99,,2013-04-22 04:23:00,
2013-04-21 22:32:00,21.0,21.0,-100.00,North,350,27.0,39.0,99,-99.99,,,-99.99,,2013-04-22 04:32:00,
2013-04-21 22:43:00,21.0,21.0,-100.00,North,355,26.0,35.0,99,-99.99,,,-99.99,,2013-04-22 04:43:00,
2013-04-21 22:52:00,21.0,21.0,-100.00,NNW,340,23.0,31.0,99,-99.99,,,-99.99,,2013-04-22 04:52:00,
2013-04-21 23:02:00,21.0,21.0,-100.00,NNW,345,26.0,37.0,99,-99.99,,,-99.99,,2013-04-22 05:02:00,
2013-04-21 23:11:00,21.0,21.0,-100.00,North,0,26.0,32.0,99,-99.99,,,-99.99,,2013-04-22 05:11:00,
2013-04-21 23:22:00,21.0,21.0,-100.00,NNW,340,32.0,40.0,99,-99.99,,,-99.99,,2013-04-22 05:22:00,
2013-04-21 23:32:00,21.0,21.0,-100.00,NNW,345,28.0,34.0,99,-99.99,,,-99.99,,2013-04-22 05:32:00,
2013-04-21 23:42:00,20.0,20.0,-100.00,North,0,26.0,39.0,99,-99.99,,,-99.99,,2013-04-22 05:42:00,
2013-04-21 23:52:00,20.0,20.0,-100.00,North,355,28.0,35.0,99,-99.99,,,-99.99,,2013-04-22 05:52:00,